Location: Unspecified
(0.0000°N, 0.0000°E)
Time: 18:59:45
(UTC+00:00)

Transit 2A - Pass Details

Date: 27 November 2019
Orbit: 602 x 957 km, 66.7° (Epoch: 08 December)

Event Time Altitude Azimuth Distance (km) Brightness Sun altitude
Rises 19:40:13 0° 4° (N) 2,975 - -26.1°
Reaches altitude 10° 19:42:48 10° 18° (NNE) 2,117 - -26.7°
Maximum altitude 19:46:40 24° 72° (ENE) 1,464 - -27.6°
Drops below altitude 10° 19:50:51 10° 125° (SE) 2,306 - -28.5°
Sets 19:53:46 0° 138° (SE) 3,306 - -29.2°
